Regional Weather Roundup
Issued by NWS San Angelo, TX

Home | Current Version | Previous Version | Text Only | Print | Product List | Glossary On
Versions: 1 2 3 4 5 6 7 8 9 10 11 12 13 14 15 16 17 18 19 20 21 22 23 24 25 26 27 28 29 30 31 32 33 34 35 36 37 38 39 40 41 42 43 44 45 46 47 48 49 50
000
ASUS44 KSJT 280502
RWRSJT
WEST CENTRAL TEXAS REGIONAL WEATHER ROUNDUP
NATIONAL WEATHER SERVICE SAN ANGELO TX
1200 AM CDT THU JUL 28 2016

NOTE: "FAIR" INDICATES FEW OR NO CLOUDS BELOW 12,000 FEET WITH NO
SIGNIFICANT WEATHER AND/OR OBSTRUCTIONS TO VISIBILITY.

TXZ049-054-064>066-071>073-076>078-098-099-113-114-127-128-139-140-
154-155-168>170-280600
...LOCATIONS ACROSS WEST CENTRAL TEXAS...

CITY           SKY/WX    TMP DP  RH WIND       PRES   REMARKS
SAN ANGELO     CLEAR     79  66  64 S8        30.00R
ABILENE        PTCLDY    76  69  79 S8        30.01S
DYESS AFB      CLEAR     77  69  76 SE8       30.00R
JUNCTION       PTCLDY    75  71  87 SE3       29.99F
SWEETWATER     CLEAR     78  67  68 SE9       30.05S
BROWNWOOD      MOCLDY    75  73  94 E3        30.00S
COLEMAN        MOCLDY    76  71  85 S3        30.01S
SONORA         CLEAR     77  68  73 S6        30.05S
OZONA          FAIR      79  63  57 S8        30.05R
BRADY          NOT AVBL
$$

TEXAS PANHANDLE/OKLAHOMA PANHANDLE

CITY           SKY/WX    TMP DP  RH WIND       PRES   REMARKS
AMARILLO       LGT RAIN  73  54  51 W14G30    30.08F
BORGER         CLOUDY    72  59  63 SE14      30.02F
CANADIAN       MOCLDY    73  64  75 SW6       30.04F
DALHART        CLOUDY    67  55  65 SW8       30.16S
DUMAS          CLOUDY    71  54  54 S8        30.09F
GUYMON         NOT AVBL
HEREFORD       CLEAR     74  53  46 E18G28    30.17F
PAMPA          CLOUDY    71  61  70 SW13      30.07F
PERRYTON       CLOUDY    71  65  83 S8        30.06F
$$

SOUTHERN PANHANDLE/SOUTH PLAINS/ROLLING PLAINS

CITY           SKY/WX    TMP DP  RH WIND       PRES   REMARKS
LUBBOCK        MOCLDY    77  65  66 N8        30.10R
SNYDER           N/A     80  66  63 SE9       30.03F
CHILDRESS      MOCLDY    84  61  45 N3        30.01S
SEMINOLE       CLEAR     79  63  57 E3        30.09R
$$

PERMIAN BASIN

CITY           SKY/WX    TMP DP  RH WIND       PRES   REMARKS
MIDLAND        CLEAR     82  63  52 SE7       30.03R
ODESSA         CLEAR     81  65  58 SE6       30.04R
WINK           CLEAR     82  62  50 E6        30.00R
$$

FAR WEST/SOUTHWEST MOUNTAINS/TRANS PECOS

CITY           SKY/WX    TMP DP  RH WIND       PRES   REMARKS
ALPINE         CLEAR     72  59  64 CALM      30.19R
DRYDEN           N/A     80  67  64 E8        29.99R
EL PASO        PTCLDY    81  61  50 E3        30.06R
FORT STOCKTON  CLEAR     79  67  66 S16       30.03R
GUADALUPE PASS CLEAR     74  53  48 NE9       30.22R
MARFA          CLEAR     69  56  62 NE8       30.17R
PECOS          CLEAR     83  55  37 E3        30.00R
$$

DALLAS/FORT WORTH METROPLEX

CITY           SKY/WX    TMP DP  RH WIND       PRES   REMARKS
DFW AIRPORT    MOCLDY    83  72  69 S6        29.93F
FTW MEACHAM    CLEAR     82  71  69 CALM      29.94S
DAL-EXECUTIVE  NOT AVBL
GRAND PRAIRIE  MOCLDY    82  71  67 S5        29.95F
ADDISON        PTCLDY    82  75  80 S6        29.96F
MESQUITE       CLOUDY    81  74  78 SE3       29.94F
LANCASTER      CLOUDY    80  75  84 CALM      29.95F
$$

NORTH CENTRAL TEXAS

CITY           SKY/WX    TMP DP  RH WIND       PRES   REMARKS
SHRMAN/DENISON NOT AVBL
GAINESVILLE    NOT AVBL
BRIDGEPORT     CLEAR     76  76 100 CALM      29.98R
DENTON         CLEAR     79  75  87 S5        29.94S
WAXAHACHIE     CLOUDY    78  76  93 SE5       29.96F
GRANBURY       PTCLDY    81  70  71 S6        29.97S
$$

WESTERN NORTH TEXAS

CITY           SKY/WX    TMP DP  RH WIND       PRES   REMARKS
WICHITA FALLS  PTCLDY    79  71  76 S8        29.95S
VERNON         CLOUDY    82  66  59 S9        29.97F
BRECKENRIDGE   NOT AVBL
COMANCHE       CLOUDY    75  75 100 SW5       29.98F
$$

CENTRAL AND SOUTH CENTRAL TEXAS

CITY           SKY/WX    TMP DP  RH WIND       PRES   REMARKS
AUSTIN/BERGSTM PTCLDY    75  73  93 CALM      29.98R
WACO           MOCLDY    80  71  74 S13       29.96S
HILLSBORO      CLOUDY    78  72  80 CALM      29.97R
TEMPLE         PTCLDY    78  71  79 S7        29.98R
KILLEEN-GRAY   CLOUDY    77  70  78 S6        29.98R
FORT HOOD      MOCLDY    78  69  73 S7        29.96S
GEORGETOWN     PTCLDY    79  68  69 E3        29.98R
LAGO VISTA     FAIR      77  70  78 SE3       30.01R
SAN MARCOS     CLOUDY    75  73  94 CALM      30.00R
NEW BRAUNFELS  CLOUDY    77  73  87 CALM      29.96S
RANDOLPH AFB   CLOUDY    75  75 100 SE6       29.97S
SAN ANTONIO    MOCLDY    77  72  84 E6        29.98R
STINSON        PTCLDY    78  72  81 CALM      29.95R
PLEASANTON     NOT AVBL
LA GRANGE      NOT AVBL
GIDDINGS       PTCLDY    75  73  92 S3        30.00S
$$

EAST TEXAS

CITY           SKY/WX    TMP DP  RH WIND       PRES   REMARKS
PARIS          CLOUDY    75  64  69 S6        29.96F
CLARKSVILLE    NOT AVBL
TYLER          CLOUDY    77  73  87 SE6       29.96F
LONGVIEW       CLOUDY    74  73  97 SW5       29.96F
PALESTINE      PTCLDY    79  74  86 SE6       29.98S
NACOGDOCHES    PTCLDY   N/A N/A N/A CALM      29.96S
$$

TEXAS HILL COUNTRY AND EDWARDS PLATEAU

CITY           SKY/WX    TMP DP  RH WIND       PRES   REMARKS
LLANO          CLOUDY    75  75 100 CALM      30.02S
HORSESHOE BAY  FAIR      77  70  78 S3        30.00R
KERRVILLE      CLOUDY    74  71  90 E3        30.02R
FREDERICKSBRG  PTCLDY    73  69  88 CALM      30.02S
ROCKSPRINGS    NOT AVBL
HONDO          PTCLDY    76  74  93 NE6       29.99S
UVALDE         CLOUDY    75  73  92 E7        29.97S
DEL RIO        CLEAR     79  72  79 E5        29.94S
$$

SOUTHEAST TEXAS

CITY           SKY/WX    TMP DP  RH WIND       PRES   REMARKS
COLLEGE STN    CLEAR     77  75  93 CALM      29.97S
CALDWELL       CLEAR     73  73 100 CALM      30.01R
CROCKETT       NOT AVBL
BRENHAM        CLEAR     76  74  93 CALM      29.97S
HUNTSVILLE     CLEAR     79  76  90 CALM      29.98S
CONROE         CLEAR     76  75  97 CALM      29.98R FOG
HOUSTON BUSH   CLOUDY    81  77  88 CALM      29.97S
HOUSTON HOBBY  CLOUDY    82  78  88 SE3       29.96S
PERLAND        CLOUDY    84  78  82 SE3       29.98S
WHARTON        CLOUDY    79  77  92 SE3       29.97R
$$

THE UPPER TEXAS COAST

CITY           SKY/WX    TMP DP  RH WIND       PRES   REMARKS
ORANGE         CLOUDY    80  76  88 CALM      30.00F
PORT ARTHUR    CLOUDY    80  78  94 S5        29.98S
GALVESTON      CLOUDY    84  80  88 S14       29.98S
ANGLETON       CLOUDY    85  79  82 S9        29.97R
BAY CITY       CLOUDY    82  79  91 SE3       29.96F
$$

TEXAS COASTAL BEND, RIO GRANDE PLAINS DEEP SOUTH TEXAS

CITY           SKY/WX    TMP DP  RH WIND       PRES   REMARKS
VICTORIA       CLOUDY    81  77  88 S7        29.95S
BEEVILLE       FAIR      78  78  99 E3        29.95R
ROCKPORT       PTCLDY    85  78  80 SE9G17    29.94R
PORT ARANSAS   PTCLDY    84  80  88 S15       29.94S
PORT LAVACA    CLOUDY    82  79  92 CALM      29.95S
CORPUS CHRISTI PTCLDY    83  78  85 S8        29.94R
KINGSVILLE NAS PTCLDY    82  81  96 SE10      29.94R
COTULLA        CLEAR     78  73  84 E8        29.93S
LAREDO         CLEAR     84  71  65 E6        29.93R
BROWNSVILLE    CLEAR     82  77  84 SE8       29.95R
PORT ISABEL    CLEAR     84  79  85 SE10      29.94R
HEBBRONVILLE   CLEAR     82  72  71 SE12      29.95R
MCALLEN        CLEAR     85  75  72 SE13      29.93R
WESLACO        CLEAR     80  31  16 SE9       29.93R
FALFURRIAS     CLOUDY    83  76  79 SE9       29.93S
EDINBURG       CLEAR     84  76  75 SE10      29.93S
$$




USA.gov is the U.S. government's official web portal to all federal, state and local government web resources and services.